Guthrie, OK

1:21 AM CST on February 18, 2018 (GMT -0600)
Guthrie Municipal

Weather History for KGOK - February, 2013

Change the Weather History Date:

Sunday, February 17, 2013

  Actual Average Record
Temperature  
Mean Temperature 54 °F -  
Max Temperature 71 °F 55 °F 80 °F (1991)
Min Temperature 36 °F 30 °F 4 °F (1951)
Degree Days  
Heating Degree Days 12    
Growing Degree Days 4 (Base 50)    
Moisture  
Dew Point 27 °F    
Average Humidity 41    
Maximum Humidity 70    
Minimum Humidity 18    
Precipitation  
Precipitation 0.00 in - - ()
Sea Level Pressure  
Sea Level Pressure 29.88 in    
Wind  
Wind Speed 11 mph (South)    
Max Wind Speed 25 mph    
Max Gust Speed 37 mph    
Visibility 10 miles    
Events Rain    
Averages and records for this station are not official NWS values.
T = Trace of Precipitation, MM = Missing Value Source: NWS Daily Summary

Daily Weather History Graph

Daily Weather History Graph

Search for Another Location

Airport or City:

Trip Planner

Search our weather history database for the weather conditions in past years. The results will help you decide how hot, cold, wet, or windy it might be!

Date:

Astronomy

Feb. 17, 2013 Rise Set
Actual Time 7:14 AM CST 6:13 PM CST
Civil Twilight 6:48 AM CST 6:39 PM CST
Nautical Twilight 6:18 AM CST 7:09 PM CST
Astronomical Twilight 5:48 AM CST 7:39 PM CST
Moon 11:23 AM CST (2/17) 12:55 AM CST (2/17)
Length of Visible Light 11h 51m
Length of Day
10h 59m
Waxing Crescent, 49% of the Moon is Illuminated
Feb 17
Waxing Crescent
Feb 17
First Quarter
Feb 25
Full
Mar 4
Last Quarter
Mar 11
New

Hourly Weather History & Observations

Time (CST) Temp. Windchill Dew Point Humidity Pressure Visibility Wind Dir Wind Speed Gust Speed Precip Events Conditions
12:53 AM 44.1 °F 38.6 °F 28.0 °F 53% 30.05 in 10.0 mi South 10.4 mph - N/A   Clear
1:53 AM 43.0 °F 38.2 °F 28.0 °F 56% 30.04 in 10.0 mi SSW 8.1 mph - N/A   Clear
2:53 AM 39.9 °F 34.5 °F 27.0 °F 60% 30.03 in 10.0 mi South 8.1 mph - N/A   Clear
3:53 AM 39.0 °F 34.0 °F 26.1 °F 60% 30.00 in 10.0 mi South 6.9 mph - N/A   Clear
4:53 AM 37.0 °F 33.3 °F 26.1 °F 65% 30.00 in 10.0 mi South 4.6 mph - N/A   Clear
5:53 AM 36.0 °F 31.1 °F 26.1 °F 67% 30.00 in 10.0 mi SSE 5.8 mph - N/A   Clear
6:53 AM 36.0 °F 29.6 °F 27.0 °F 70% 29.99 in 10.0 mi South 8.1 mph - N/A   Clear
7:53 AM 39.0 °F 34.0 °F 28.0 °F 65% 29.99 in 10.0 mi South 6.9 mph - N/A   Clear
8:53 AM 45.0 °F 39.7 °F 28.9 °F 53% 29.98 in 10.0 mi South 10.4 mph - N/A   Clear
9:53 AM 52.0 °F - 28.0 °F 40% 29.97 in 10.0 mi South 8.1 mph - 0.00 in Rain Light Rain
10:53 AM 57.9 °F - 28.0 °F 32% 29.95 in 10.0 mi SSW 10.4 mph - 0.00 in Rain Light Rain
12:53 PM 68.0 °F - 27.0 °F 21% 29.87 in 10.0 mi South 15.0 mph - N/A   Clear
2:53 PM 71.1 °F - 26.1 °F 19% 29.79 in 10.0 mi South 21.9 mph 31.1 mph N/A   Clear
3:53 PM 71.1 °F - 28.0 °F 20% 29.76 in 10.0 mi South 16.1 mph 31.1 mph N/A   Clear
4:53 PM 71.1 °F - 25.0 °F 18% 29.74 in 10.0 mi South 21.9 mph 32.2 mph N/A   Clear
5:53 PM 68.0 °F - 27.0 °F 21% 29.73 in 10.0 mi South 18.4 mph 25.3 mph N/A   Clear
6:53 PM 64.9 °F - 27.0 °F 24% 29.73 in 10.0 mi South 13.8 mph - N/A   Clear
7:53 PM 64.0 °F - 25.0 °F 23% 29.73 in 10.0 mi South 13.8 mph 23.0 mph N/A   Clear
8:53 PM 62.1 °F - 27.0 °F 26% 29.71 in 10.0 mi South 20.7 mph 31.1 mph N/A   Clear
9:53 PM 61.0 °F - 28.9 °F 30% 29.70 in 10.0 mi South 23.0 mph 35.7 mph N/A   Clear
11:53 PM 59.0 °F - 32.0 °F 36% 29.69 in 10.0 mi South 25.3 mph 36.8 mph N/A   Clear